User: anonymous   Login
Location: Ernsee
(50.8780°N, 12.0389°E)
Time: 01:24:58
(UTC+00:00)
Language:

STARLINK-26 - Orbit

View from above orbital plane
View from above orbital plane
View from above satellite
View from above satellite

Ground track
Ground track

The orbit data is extracted from the following two-line orbital elements,

1 44240U 19029F   20091.91667824  .00148597  00000-0  32101-2 0  9993
2 44240  53.0069 174.2306 0001796 109.3943 155.7367 15.43502824 47755
Epoch (UTC): 31 March 2020 22:00:01
Eccentricity: 0.0001796
inclination: 53.0069°
perigee height: 434 km
apogee height: 437 km
right ascension of ascending node: 174.2306°
argument of perigee: 109.3943°
revolutions per day: 15.43502824
mean anomaly at epoch: 155.7367°
orbit number at epoch: 4775

The dashed part of the orbit path shows where the satellite is in the earth's shadow,  

DLR